Location: Home
(42.5358°N, 72.7383°W)
Time: 16:05:39
(UTC-05:00)

N. Korean satellite - Pass Details

Date: 27 October 2021
Orbit: 446 x 495 km, 97.3° (Epoch: 07 December)

Event Time Altitude Azimuth Distance (km) Brightness Sun altitude
Rises 06:26:12 0° 7° (N) 2,590 10.2 -10.3°
Reaches altitude 10° 06:28:20 10° 2° (N) 1,698 9.3 -9.9°
Maximum altitude 06:31:53 52° 286° (WNW) 616 6.7 -9.2°
Drops below altitude 10° 06:35:23 10° 209° (SSW) 1,664 9.1 -8.6°
Sets 06:37:27 0° 204° (SSW) 2,531 10.1 -8.2°
